STARLINK-11334, 61250

Orbit data source: Space-Track

STARLINK-11334, 61250 is a payload satellite owned by SpaceX/Seattle (US) in LEO that was launched on Wed, 25 Sep 2024 UTC via an FALCON 9 launch vehicle from the Air Force Western Test Range (AFWTR). Payload-class satellites include a variety of spacecraft equipped with specific instruments for various scientific and technological missions. These include communications satellites like Starlink; space stations such as the ISS; scientific satellites like the Hubble; Earth observation satellites from companies like Planet Labs, Umbra, and HawkEye 360; GPS; miniature CubeSats for education and research; and military/defense satellites.

Loading next visibility...
Identifier
61250, 2024-175H
Orbit
LEO
Last TLE update
11 hours ago
Origin
Manufacturer
SpaceX/Seattle
Mission
Operational Commercial Communications
Bus & Motor
STARLINK V2M, Unknown motor
Mass
730 kg wet, ~700 kg dry
Launch date (UTC)
2024-09-25 (9 months ago)
Launch vehicle
FALCON 9
Launch site
Air Force Western Test Range (AFWTR)
Object type
Payload
Rocket body
Debris
Shape & HBR
Box + 2 Pan, 29 m
Radar Cross Section
36.964 m², Large (>1 m²)

Expand to show TLE details & history

TLE from 11 hours ago
0 STARLINK-11334
1 61250U 24175H   25181.82716763 -.00000013  00000-0  47536-5 0  9995
2 61250  53.1585 217.5112 0001038  68.5871 291.5258 15.69709205 43811
Epoch: 2025-06-30T19:51Z
TLE epoch observation values (Epoch: 2025-06-30T19:51:07.283Z)
Latitude
0.00003°
Longitude
0.59948°
Altitude
360.387 km
Speed
7.694 km/s
True Right ascension
14h 30m 02s
True Declination
0° 00' 00"
Sunlit
Object was in full shadow at epoch
Visualization orbit readout
Latitude
46.74488°
Longitude
125.94386°
Altitude
364.294 km
Speed
7.697 km/s
Apparent Right ascension
02h 56m 21s
Apparent Declination
9° 19' 42"
Sunlit
Object is in daylight
Visualization observer readout
Local Sidereal Time
18:40:00
Azimuth
59.613° ENE
Elevation
-18.675°
Doppler factor
1
Orbital elements
Apogee altitude
360.689 km
Perigee altitude
359.291 km
Semi-major axis
6,738.127 km
Eccentricity
0.0001
Inclination
53.1585°
RAAN
217.5112°
Arg. of periapsis
68.5871°
True anomaly
Unknown
Mean anomaly
291.5258°
Eccentric anomaly
Unknown
Mean motion
3.92405 °/min
Orbital period
91.74 mins
BSTAR
0.0000047536
Loading maneuver chart data...
Loading SW <> Apogee altitude chart data...
Loading historical data...
Loading historical data...
Loading historical data...
Loading historical data...
Loading historical data...
Loading historical data...
Loading historical data...

STARLINK-11334 Visibility forecast

Observer location: undefined°, undefined°

Span
Click to sort rows by Start time (UTC) header in descending order
Start Az.
Max El. time (UTC)
Max El. Az.
Max El.
End time (UTC)
End Az.
4 mins2025-07-01 11:38:06.616Z338.376° N2025-07-01 11:39:06.616Z23.434° NE35.815°2025-07-01 11:42:06.616Z112.342° ESE
4 mins2025-07-02 05:42:06.616Z280.848° WNW2025-07-02 05:43:06.616Z308.786° NW24.114°2025-07-02 05:46:06.616Z29.634° NE
|